Wind_Speed
10 11 12 13 14 15 14 13 13 13 14 14 14 13 11 9 8 8 10 10 9 10 11 12 13 13 14 14 15 16 18 20 23 24 24 24 23 22 22 23 24 25 27 29 30 29 27 26 26 26 27 28 29 30 31 30 30 31 32 32 33 34 35 36 37 37 38 39 40 40 40 40 41 41 42 42 43 43 43 41 39 38 38 41 43 44 44
10 9 10 11 12 12 13 13 12 11 10 11 12 12 12 10 8 7 7 7 8 9 10 11 11 12 15 16 16 17 18 19 20 20 20 20 19 19 18 18 19 20 21 23 23 22 23 25 27 27 28 30 31 31 31 31 32 33 34 34 34 35 36 38 38 39 39 40 40 39 39 40 40 41 41 42 42 42 40 38 38 39 42 43 44 44 44
9 9 9 10 10 11 12 11 10 9 7 7 9 9 9 9 9 7 5 4 5 7 8 9 10 12 13 15 15 15 16 17 19 20 20 20 20 19 19 19 19 19 20 21 22 22 24 26 27 28 29 31 31 31 32 32 33 34 35 35 36 37 38 39 39 39 39 39 39 39 39 40 41 41 40 40 40 39 38 39 41 42 44 44 44 44 44
8 8 8 8 9 10 10 9 8 8 6 5 5 5 5 7 7 6 5 4 4 5 6 7 8 10 11 12 13 14 14 14 15 16 17 18 18 18 19 19 20 21 22 23 24 24 25 27 27 28 30 30 31 32 32 33 34 35 36 36 37 38 38 38 38 38 38 38 39 40 40 40 40 39 38 38 39 39 40 41 43 43 44 44 44 45 45
9 8 8 8 8 9 9 8 7 7 6 4 3 4 4 3 3 3 4 5 5 4 5 6 7 8 9 11 12 13 14 14 15 15 16 16 16 17 18 19 20 20 22 23 24 25 25 26 27 29 30 30 31 32 33 34 34 35 35 35 36 37 37 37 37 37 38 39 40 40 40 39 38 37 37 38 39 40 41 42 43 44 45 45 45 46 48
9 9 8 9 9 8 8 8 7 6 6 5 4 4 5 2 1 2 2 2 3 4 4 5 6 7 7 9 10 12 13 15 15 16 17 18 18 18 19 19 20 21 22 23 24 25 26 27 28 28 28 29 30 31 32 33 33 34 34 34 35 36 36 36 37 38 39 40 39 39 38 37 36 37 38 40 41 41 42 42 44 45 46 47 48 49 51
11 10 9 9 9 8 7 7 7 6 6 5 4 4 5 4 3 4 5 3 2 2 2 3 4 5 6 6 7 8 10 12 14 15 16 17 18 19 20 20 21 22 22 23 24 25 25 26 26 26 27 28 29 30 31 32 32 33 34 34 35 35 36 36 37 38 39 38 38 37 36 37 38 39 40 40 41 41 42 44 45 46 48 49 51 52 54
13 11 11 10 9 8 6 6 6 6 6 5 5 6 5 3 2 4 6 6 4 5 5 5 5 5 6 6 7 8 9 10 11 12 13 14 15 15 16 17 18 19 20 21 22 23 23 23 24 25 27 28 29 29 30 31 32 33 33 34 35 35 36 36 36 37 37 37 37 37 38 38 39 40 40 40 41 42 44 46 47 49 51 53 54 55 57
13 12 12 11 10 9 8 7 6 5 5 4 4 5 5 3 1 1 3 3 2 5 7 8 9 9 8 10 12 12 12 13 13 13 13 14 14 15 16 17 18 19 20 21 22 23 24 24 25 26 28 29 30 31 31 31 32 33 33 33 33 33 33 34 35 36 37 38 39 39 39 39 40 40 40 41 42 44 46 48 50 52 54 55 57 58 60
14 13 11 11 11 10 9 8 7 7 6 5 4 3 2 2 2 2 3 3 1 2 3 5 7 8 9 11 13 13 13 14 14 14 15 15 16 17 18 19 20 21 23 24 25 25 25 26 27 28 29 30 30 30 29 30 30 30 29 30 30 31 33 34 36 38 39 40 40 40 40 40 40 40 41 42 44 46 49 51 53 54 56 58 59 61 62
15 14 12 11 11 11 9 8 9 8 7 6 5 4 4 3 3 2 1 1 1 2 2 2 3 5 7 7 6 4 5 7 8 9 11 12 13 15 16 18 19 20 22 22 23 23 24 24 25 25 25 25 25 25 25 27 27 27 28 30 32 34 35 37 39 40 40 41 41 41 40 41 42 43 44 45 47 49 52 54 55 57 59 60 62 63 65
16 16 14 11 12 14 11 9 9 9 8 7 6 6 6 5 5 5 4 3 3 4 4 4 4 5 6 5 3 3 4 5 6 7 9 10 12 13 14 15 16 16 17 17 18 19 20 21 22 22 22 23 23 24 26 28 28 28 31 34 35 36 37 38 40 41 41 42 42 42 42 44 45 46 47 48 50 53 55 57 58 59 61 63 64 65 66
18 19 16 12 12 15 16 13 11 11 9 8 8 8 8 8 7 7 7 6 6 6 7 7 7 8 8 8 7 7 8 9 10 11 11 12 12 13 14 14 15 15 16 16 18 19 21 22 23 24 25 26 26 28 29 29 29 31 34 36 36 37 38 39 40 41 42 43 44 44 46 48 49 49 50 52 53 56 58 59 60 61 63 65 65 67 68
21 21 20 16 14 17 19 17 16 14 13 11 10 10 10 10 10 10 9 9 8 9 9 10 10 10 11 11 10 10 11 12 13 14 14 14 14 14 15 16 17 18 19 20 22 23 25 26 26 27 28 28 29 30 29 28 30 34 36 37 37 38 39 40 42 43 44 45 46 47 49 51 52 53 54 54 55 58 60 61 61 63 64 66 67 68 69
26 24 22 19 18 19 20 20 20 19 17 16 15 14 14 13 12 12 12 11 11 11 11 12 13 14 14 14 14 13 13 14 15 16 16 16 16 16 17 18 19 20 22 23 25 26 27 27 27 27 28 28 30 30 29 30 33 36 37 38 39 40 42 43 44 46 47 48 49 51 52 55 56 56 57 57 58 60 61 61 62 64 66 68 69 69 70
28 26 23 22 22 21 22 23 23 23 21 20 20 19 18 17 16 15 14 14 14 14 14 15 16 17 18 17 17 17 17 16 16 17 18 19 19 20 20 20 21 22 23 25 26 27 27 27 28 29 29 30 32 31 32 34 37 38 39 41 42 43 45 46 47 49 50 52 53 54 56 58 59 59 59 59 60 61 61 62 63 66 68 69 70 70 69
29 27 26 27 26 25 26 26 26 26 25 24 23 22 20 19 18 18 18 18 18 18 18 19 20 20 20 20 20 20 21 21 21 21 21 22 23 23 24 25 25 25 26 27 28 28 29 30 31 32 33 35 35 36 38 41 42 42 44 45 46 47 48 50 51 53 54 56 57 58 59 61 61 61 60 60 60 61 62 63 65 67 69 70 70 69 68
30 26 26 29 29 28 30 30 28 28 28 27 27 25 22 21 20 20 21 22 22 22 23 23 24 24 24 24 23 23 23 24 25 25 25 26 26 27 28 29 30 30 31 31 32 33 34 35 36 38 39 40 40 42 45 47 47 48 49 50 50 52 53 54 56 57 58 59 59 60 61 61 61 61 61 61 62 63 64 66 67 69 70 70 69 67 65
31 26 26 30 32 31 31 32 31 31 31 29 29 27 25 24 23 23 23 24 25 26 26 26 26 27 28 28 28 27 27 28 28 29 29 30 30 31 32 33 34 35 35 36 37 38 39 40 41 42 43 44 44 47 49 51 51 52 53 54 54 55 56 57 58 59 60 60 60 61 61 61 62 62 62 63 64 66 67 68 69 70 70 69 67 65 63
34 29 28 33 37 37 36 34 33 32 32 31 30 28 26 25 24 24 24 24 24 25 26 27 27 27 28 30 30 30 31 31 32 32 32 33 33 34 35 36 37 38 39 39 40 41 42 43 45 46 46 47 48 50 52 53 54 55 55 56 57 57 58 58 59 59 59 60 61 62 62 62 63 64 64 66 68 68 69 70 70 70 70 68 65 63 62
36 31 31 37 42 42 40 39 38 35 34 34 33 31 28 26 25 25 25 24 24 24 25 27 26 25 26 29 30 30 31 32 34 34 35 35 36 36 37 38 39 40 40 41 43 43 44 46 47 48 48 49 51 52 53 55 56 56 56 57 58 58 58 59 59 59 60 61 62 63 63 64 65 66 68 69 70 70 71 71 71 70 68 66 63 61 61
37 33 34 39 44 43 39 40 42 40 38 36 35 33 32 31 30 29 29 27 26 25 24 25 25 24 24 27 28 29 29 31 33 34 35 35 35 36 37 37 38 39 40 42 43 45 45 47 49 49 50 51 52 53 54 56 57 58 58 59 59 58 58 59 59 60 61 62 63 63 64 65 67 68 69 70 71 71 71 69 68 67 65 63 61 60 62
36 35 35 38 41 41 37 36 39 40 38 36 34 31 31 32 31 30 29 27 25 24 23 23 23 22 22 24 26 27 27 29 31 32 33 34 34 35 36 36 37 38 39 41 43 44 46 48 49 50 51 52 52 53 55 56 58 59 59 60 59 59 59 59 59 61 62 63 64 65 66 67 68 69 69 70 70 68 66 64 64 63 61 60 59 60 62
35 33 33 36 40 39 35 32 34 36 36 35 33 30 29 29 29 29 28 27 25 24 24 24 24 24 24 25 26 26 27 28 31 33 34 35 35 36 37 38 38 39 41 43 44 46 47 49 49 50 51 51 52 53 54 56 57 58 59 60 59 59 59 60 61 63 64 65 66 67 67 67 67 68 68 67 66 63 61 61 61 59 58 58 59 60 60
33 31 31 35 38 38 34 31 32 34 35 36 34 31 29 30 30 30 31 30 28 27 27 27 27 28 29 30 29 30 31 31 33 35 37 38 38 38 39 40 41 43 44 46 47 48 49 49 50 51 52 52 52 53 54 56 58 59 59 59 59 60 60 61 63 64 65 65 66 66 66 66 66 66 65 64 62 61 60 59 58 57 57 59 59 59 58
35 33 33 35 36 36 35 33 31 30 31 33 33 31 30 31 32 33 33 33 33 33 33 33 33 34 35 35 34 34 35 35 35 36 38 39 40 41 42 43 44 46 47 48 49 49 50 50 52 53 53 52 52 54 56 58 59 60 60 59 60 60 61 62 63 63 64 64 64 64 64 64 64 63 62 61 61 60 58 57 56 57 58 58 58 58 58
37 35 36 38 38 37 36 35 32 29 28 31 34 34 34 35 36 36 37 37 37 38 39 38 38 39 40 40 40 39 39 38 37 37 38 39 40 42 43 44 45 46 47 48 49 50 51 52 53 54 54 54 55 57 58 60 61 61 60 59 58 59 60 61 61 62 61 61 61 61 61 61 61 61 61 61 60 58 55 55 57 58 58 57 57 58 59
39 39 41 44 42 38 36 34 33 33 32 33 36 38 40 40 40 41 41 41 42 43 43 42 42 43 43 43 43 43 41 40 38 38 38 39 41 41 43 44 45 46 47 48 49 50 51 53 54 54 54 55 56 58 60 61 61 60 58 57 57 57 57 58 59 59 59 59 59 59 59 59 60 60 60 59 57 54 54 56 58 58 57 57 58 59 60
41 42 44 45 43 39 36 34 34 35 36 36 37 39 42 43 44 44 44 44 45 47 47 47 47 47 46 45 45 45 43 42 41 41 40 40 41 42 43 44 46 47 48 48 49 51 52 52 53 54 53 54 56 58 59 60 59 58 56 56 55 55 55 55 56 57 57 57 57 58 59 60 60 60 58 56 54 54 55 57 57 57 57 58 58 59 59
43 45 46 45 44 41 40 39 38 37 37 38 39 40 41 43 45 45 45 46 48 50 51 51 51 50 49 49 48 47 46 45 46 46 45 43 42 44 45 47 48 49 50 51 52 53 53 53 54 54 53 53 56 58 58 58 57 56 55 55 55 54 55 56 57 57 58 58 59 60 61 61 60 58 55 53 54 55 56 57 56 57 57 58 58 58 58
47 48 48 47 45 44 44 45 44 42 40 40 41 42 43 45 46 47 47 48 50 51 52 53 53 53 53 54 53 52 51 51 51 51 49 47 46 48 50 51 52 54 55 56 56 55 54 54 54 53 53 55 57 58 57 56 55 55 55 55 55 56 57 58 59 59 60 60 60 60 59 58 56 54 53 54 55 56 55 55 56 57 57 57 57 56 54
52 52 52 50 47 46 47 47 47 45 43 43 44 45 47 48 48 48 49 50 52 52 52 53 54 55 56 58 59 60 59 57 56 54 51 49 50 51 53 54 57 60 60 59 57 55 53 53 53 53 55 56 57 57 56 55 54 54 54 54 55 56 57 58 58 58 58 58 57 56 55 54 54 53 53 53 54 54 54 54 55 56 56 55 54 52 50
56 55 53 50 48 48 48 46 46 47 47 47 49 49 50 50 50 50 51 51 51 51 51 52 53 55 57 59 62 63 62 61 58 55 51 51 51 53 55 59 62 62 61 58 55 53 52 52 53 54 56 56 56 55 54 52 51 51 51 51 52 53 54 54 55 55 56 55 54 53 53 53 53 53 53 52 52 53 53 54 55 55 54 52 50 48 46
59 56 52 48 47 49 49 48 47 49 50 51 52 53 53 53 54 53 52 50 49 50 51 52 54 56 58 60 62 62 61 59 56 53 51 52 53 56 59 61 62 60 58 56 54 53 52 53 54 55 55 55 54 53 52 51 51 51 52 52 53 53 53 53 54 54 54 53 53 53 53 53 53 52 52 53 53 53 53 53 53 52 50 47 46 45 44
61 60 56 52 49 51 53 54 54 54 54 55 56 55 55 55 55 54 53 52 51 51 53 54 55 57 58 59 60 60 59 57 54 53 53 54 56 58 60 60 59 59 57 55 54 54 53 54 54 54 54 54 54 53 53 54 54 54 54 54 53 53 52 52 52 52 52 52 52 52 52 52 52 52 52 52 52 51 51 51 50 47 45 43 43 43 44
62 61 59 56 54 54 57 59 59 60 60 60 60 58 56 56 56 55 54 53 53 53 54 55 56 57 58 58 59 58 58 57 56 56 56 56 56 57 58 57 57 58 57 55 55 55 54 54 54 54 54 54 55 55 55 55 55 55 55 54 52 50 49 49 50 50 50 50 50 50 50 50 50 50 50 50 50 49 49 47 45 43 41 41 42 43 44
62 60 58 58 57 57 57 59 60 62 63 63 62 61 60 59 58 57 56 54 53 54 55 55 56 57 58 59 60 60 60 60 60 60 59 58 57 58 58 57 58 58 57 56 55 55 54 53 53 54 54 55 55 55 55 55 55 55 54 52 49 48 47 47 48 48 47 47 46 46 47 47 47 47 47 48 48 47 46 44 42 40 40 41 42 43 45
58 55 55 55 56 55 55 56 58 60 60 60 60 60 60 59 59 58 56 55 54 54 55 56 57 58 60 62 63 64 65 65 65 65 64 62 61 62 62 61 60 59 58 57 57 55 53 52 52 53 54 55 54 54 54 55 55 54 52 48 46 45 45 44 43 43 42 42 43 43 44 45 45 46 46 46 46 45 43 42 40 40 40 41 42 44 46
56 53 53 53 52 52 52 54 56 58 58 59 58 58 59 59 59 59 59 58 57 58 59 59 59 60 62 64 66 67 68 70 69 69 68 67 66 66 65 63 61 59 59 58 58 55 53 52 53 53 54 54 53 53 54 54 54 51 47 44 43 42 40 39 39 39 40 41 42 43 44 45 45 45 45 45 45 43 42 40 39 39 40 41 42 43 45
55 53 53 53 53 54 56 58 60 62 63 63 63 63 64 64 65 65 64 63 62 63 63 63 63 63 64 66 67 67 69 70 71 70 70 70 69 68 64 61 60 59 58 57 56 55 53 53 53 53 54 54 53 52 53 53 50 46 43 41 40 39 38 37 38 39 41 42 43 44 45 46 46 46 45 45 44 42 40 39 39 39 39 40 41 42 44
54 55 57 58 58 60 63 65 65 66 67 68 69 70 70 70 70 69 68 67 67 67 67 67 67 67 67 68 69 69 70 72 72 71 71 69 68 65 61 58 59 59 57 55 55 54 52 53 53 54 53 52 51 51 51 49 46 43 40 40 39 38 37 38 39 40 41 43 44 45 46 46 46 47 46 45 44 42 40 39 39 39 39 40 41 43 46
59 61 63 62 63 64 66 68 68 69 70 72 73 73 73 73 73 72 71 71 71 72 73 73 73 72 72 73 73 73 73 73 72 70 69 67 65 62 58 56 57 57 55 53 52 52 52 52 53 53 52 51 50 50 48 46 44 42 40 39 39 38 38 38 39 40 41 43 44 44 45 46 47 48 47 45 43 41 40 40 39 39 40 41 42 45 47
62 65 65 63 63 64 65 67 69 70 72 74 75 75 74 74 74 73 72 73 74 75 76 76 76 76 75 74 73 72 70 69 68 67 66 64 61 57 54 54 55 55 53 50 50 50 50 52 52 52 52 51 50 49 47 46 44 42 40 39 39 38 38 38 39 39 40 41 42 44 45 47 48 48 47 45 43 42 41 41 40 40 41 42 44 46 48
65 66 64 59 59 63 67 69 71 73 74 75 76 75 75 74 73 73 73 74 74 75 75 76 75 73 71 69 67 66 65 64 64 63 61 58 55 52 51 51 52 52 50 49 49 49 51 52 52 52 52 51 49 48 47 45 43 41 40 39 39 38 38 38 39 40 40 41 42 43 44 46 48 49 48 45 43 42 42 41 41 41 42 43 44 47 49
65 65 62 58 59 65 71 74 76 77 77 76 76 75 74 73 73 73 73 73 74 74 74 73 71 68 65 63 63 62 60 60 59 57 55 53 52 51 50 50 49 49 47 47 48 50 51 52 52 51 51 49 47 46 45 43 41 40 40 39 39 39 39 39 40 40 41 41 42 42 43 45 48 50 48 45 43 43 43 42 42 42 42 43 45 47 49
62 60 61 61 63 68 74 77 78 78 78 77 75 73 73 72 72 72 72 72 72 71 70 69 67 65 63 62 61 59 57 55 54 53 52 51 51 50 49 49 48 46 45 46 48 50 51 51 50 49 47 45 44 42 41 40 40 39 39 38 38 38 38 39 40 41 41 41 41 42 43 44 47 49 48 45 44 44 43 41 41 42 42 43 46 48 48
60 59 61 63 64 67 72 76 77 77 77 75 71 70 70 71 70 69 69 70 69 68 67 66 65 63 61 59 57 55 54 53 52 51 50 50 49 48 47 47 46 45 44 45 46 47 47 46 44 43 41 40 39 39 38 38 37 36 35 35 36 37 38 39 40 41 41 41 42 42 43 44 47 48 48 46 44 43 42 41 41 42 42 44 46 47 47
63 63 64 64 64 65 68 71 72 72 70 68 66 66 67 68 67 66 66 66 65 64 63 62 60 58 57 55 54 52 51 51 49 48 48 47 46 44 44 44 44 43 42 41 40 38 37 37 37 37 37 36 36 36 35 35 34 34 35 36 37 39 40 41 42 43 43 43 43 44 44 45 46 48 47 45 42 41 41 41 41 41 42 44 45 45 46
63 63 64 65 64 64 65 66 66 64 63 63 64 64 65 65 65 64 62 60 59 58 56 55 53 52 51 50 49 48 48 46 45 44 44 43 41 41 41 41 40 39 38 36 34 33 33 34 34 34 35 35 35 35 36 36 36 37 38 39 41 42 44 45 46 46 46 46 46 46 45 45 46 47 46 43 41 40 40 40 40 40 42 43 43 43 44
56 58 61 63 63 63 64 64 63 61 62 63 63 63 64 63 61 59 56 53 52 52 50 49 48 48 47 47 45 44 42 40 39 37 36 35 35 37 38 38 37 37 37 37 37 36 36 36 36 36 37 37 38 38 38 38 38 39 41 43 44 45 47 48 49 49 50 49 48 46 45 45 45 45 43 41 40 39 39 39 39 41 42 42 42 42 43
54 57 60 62 63 64 64 64 62 62 63 63 63 62 62 59 56 52 49 48 48 47 46 44 44 44 44 43 41 38 36 35 34 34 34 35 37 38 39 39 39 40 41 41 41 41 41 41 41 41 42 42 42 42 41 41 42 44 45 46 46 47 49 50 51 52 52 51 48 45 44 44 43 42 40 39 39 38 38 38 40 41 42 42 42 42 43
57 59 62 63 64 63 62 62 61 61 60 59 59 59 57 54 50 47 45 45 45 43 41 39 38 39 39 39 38 37 37 37 38 39 40 42 43 44 44 44 44 44 45 45 45 45 45 45 45 45 45 45 45 45 45 46 48 49 50 49 48 48 50 52 52 53 52 50 46 44 43 42 41 38 37 37 37 37 38 39 40 41 42 42 42 42 42
Wind_Direction
13 15 9 5 6 9 12 15 16 17 17 18 20 16 10 13 25 45 62 73 86 103 126 139 141 144 148 153 160 167 177 188 197 203 208 213 216 218 221 223 225 226 228 231 236 238 239 240 241 242 244 246 246 247 249 251 251 251 253 257 260 261 262 262 263 264 263 262 261 261 262 264 265 266 267 268 270 270 271 271 271 272 273 273 275 278 280
353 357 355 354 356 356 356 0 5 10 14 18 22 23 20 17 18 30 49 67 89 105 123 139 145 146 148 152 157 162 165 168 174 181 189 194 199 200 201 203 208 211 216 224 229 230 231 235 238 240 242 245 247 250 253 254 254 256 258 259 260 260 260 260 261 262 261 261 261 262 262 263 263 264 265 266 266 267 268 269 270 272 273 275 278 280 283
353 351 347 344 344 344 347 354 1 3 5 12 20 24 25 28 31 33 39 64 97 114 127 137 144 150 153 154 155 159 163 166 168 172 177 181 185 188 190 194 198 202 208 218 224 224 225 231 236 239 243 247 251 254 256 255 256 257 258 258 258 258 259 259 260 261 262 262 263 263 264 264 265 265 265 265 265 266 268 270 272 274 276 278 280 282 285
7 3 359 353 350 347 347 351 356 359 1 5 9 8 17 37 45 38 28 41 77 114 137 146 154 162 165 165 165 167 168 170 172 175 179 182 186 189 193 198 204 207 212 220 226 228 230 235 239 242 245 248 251 252 253 253 253 255 257 259 259 260 261 262 262 262 262 262 262 263 264 265 265 265 265 265 266 270 272 274 276 278 279 281 283 286 288
12 12 11 6 3 1 360 358 357 360 3 3 342 323 345 34 55 31 31 56 78 103 131 149 163 173 177 180 184 187 188 188 188 189 192 195 198 201 204 209 213 217 221 226 231 234 238 241 242 244 248 251 252 254 255 257 258 260 261 262 262 262 263 263 263 262 262 263 264 265 265 265 265 265 266 268 271 275 277 278 280 281 282 285 287 289 292
8 8 10 8 5 7 11 10 7 8 7 2 342 316 318 325 274 314 3 79 110 112 120 135 149 160 169 178 184 189 193 195 197 198 202 207 211 215 218 221 223 226 229 232 236 239 242 245 247 250 253 255 256 258 259 261 261 262 263 263 262 263 263 263 263 264 265 267 267 267 266 267 268 270 272 275 278 279 280 281 282 284 286 288 290 292 294
4 5 5 5 3 5 11 13 12 16 18 12 1 342 330 321 293 275 276 263 203 163 153 152 155 158 161 168 178 186 191 193 195 198 202 208 214 218 222 225 227 230 233 236 239 242 245 247 251 253 255 256 257 259 260 261 261 263 264 264 264 264 264 265 265 266 266 267 266 267 268 270 273 275 277 279 280 281 281 282 284 286 288 290 292 293 294
357 1 1 3 5 2 359 2 4 9 18 15 9 18 25 6 313 275 276 279 262 240 234 225 214 203 191 193 200 202 202 202 203 206 209 214 220 224 228 232 235 238 241 244 246 248 251 255 257 258 258 259 260 261 261 263 263 264 264 264 265 265 265 265 265 265 266 266 267 269 271 273 276 277 278 279 280 280 282 283 286 288 289 291 293 294 295
343 351 353 355 359 358 352 351 349 348 356 359 359 23 52 65 11 320 329 330 276 243 246 245 241 237 229 228 228 225 222 221 220 222 224 228 232 236 239 242 244 246 248 249 251 252 254 256 257 257 258 259 260 260 261 262 262 263 263 264 264 264 264 264 264 265 266 268 270 272 273 275 277 277 278 279 280 281 283 285 287 289 291 292 293 294 296
324 333 340 341 343 347 348 349 346 340 340 340 330 334 10 38 19 23 41 60 118 202 232 243 246 244 241 243 247 245 241 240 238 237 237 238 240 241 243 244 245 246 247 248 250 251 252 254 255 256 257 258 259 259 260 261 261 262 262 263 263 263 263 264 265 266 268 269 271 273 275 276 278 279 280 281 282 284 286 287 289 290 292 293 294 295 296
308 313 322 326 324 326 332 337 338 337 337 338 327 307 309 328 330 334 11 102 157 183 195 202 214 222 229 241 256 258 245 245 245 243 240 239 238 238 238 239 239 240 242 244 246 248 249 250 251 252 252 254 255 256 257 257 258 259 261 262 262 263 263 264 265 266 268 270 272 275 277 279 280 282 284 285 285 286 287 289 290 291 292 293 294 295 296
294 297 304 311 309 307 312 316 318 322 326 329 326 315 317 322 313 305 300 272 246 238 234 226 218 219 228 236 232 196 190 204 215 225 229 229 229 229 230 232 235 235 237 239 240 242 243 243 245 247 249 251 252 253 254 255 258 261 263 263 263 263 263 264 265 267 269 272 275 278 280 282 284 286 286 286 287 287 288 290 291 292 292 293 294 295 295
286 287 292 296 293 293 298 300 297 298 301 308 312 313 315 318 311 306 303 293 278 266 260 255 246 243 247 250 242 224 215 215 219 225 230 231 232 234 235 237 239 240 241 243 243 244 245 245 247 249 250 251 252 253 255 257 260 262 261 260 261 262 264 265 268 270 272 275 278 281 283 284 286 287 287 287 287 287 289 290 291 291 292 293 293 294 294
284 284 288 291 285 281 286 289 288 286 286 288 293 297 300 304 305 305 302 298 292 284 277 274 270 263 260 260 257 247 237 235 238 241 244 247 248 248 248 248 249 248 248 248 248 248 248 249 250 251 253 255 256 257 259 261 261 259 259 260 263 265 267 269 271 273 276 278 281 283 284 285 286 286 287 287 287 287 288 290 291 291 291 292 292 293 293
284 285 288 289 283 278 279 280 280 279 280 282 283 285 287 289 292 295 295 292 288 285 281 279 279 279 277 275 274 271 263 256 255 257 260 263 263 261 257 255 253 252 251 250 251 252 254 256 257 258 259 260 260 261 262 262 260 260 261 264 266 268 271 273 275 277 279 281 283 284 285 285 286 287 287 287 287 287 289 290 290 290 290 291 291 292 293
286 287 288 285 281 279 277 275 274 275 275 277 279 279 281 283 284 285 285 284 282 282 282 282 281 281 283 284 285 284 282 278 273 269 269 270 270 270 268 265 262 261 259 258 259 261 264 265 265 265 265 265 265 266 267 265 264 265 268 269 271 273 275 277 279 280 282 283 284 284 285 285 286 287 287 287 287 288 289 289 289 289 289 290 291 292 294
287 289 290 286 281 279 276 273 272 273 274 274 275 277 278 281 282 282 280 278 278 279 280 281 282 282 282 283 283 283 283 283 281 278 275 273 273 274 274 273 272 271 270 270 271 272 272 272 272 272 272 272 273 274 273 272 272 274 274 275 277 278 280 281 281 282 283 283 284 284 284 285 285 286 286 286 287 287 287 287 287 288 288 290 291 293 295
287 292 292 287 282 278 276 274 274 274 274 277 280 284 285 284 281 279 277 276 276 276 276 276 278 279 280 280 280 279 279 279 279 279 279 278 278 278 278 277 277 276 276 276 276 275 275 275 275 275 275 276 278 278 277 277 278 279 279 280 281 281 282 282 282 282 283 283 284 283 283 284 284 285 285 286 286 285 286 286 287 287 289 291 293 294 295
283 286 287 286 284 280 277 276 278 279 280 282 286 288 289 286 283 280 278 277 277 277 277 276 276 277 279 279 279 279 279 279 278 279 279 278 278 279 279 279 280 280 280 279 278 278 278 278 277 278 278 279 279 279 279 279 280 280 280 281 282 282 282 282 282 283 283 283 283 283 283 283 283 284 285 285 285 285 286 286 287 289 291 293 294 294 294
277 278 280 281 281 279 278 279 281 282 284 287 290 292 292 291 290 286 283 281 281 280 280 280 280 280 280 281 281 281 282 281 281 279 279 278 278 278 278 278 279 280 280 280 280 280 280 279 279 279 279 280 279 278 279 279 280 280 281 281 281 281 282 282 282 282 282 282 282 282 282 283 284 284 285 285 285 286 287 288 289 291 293 293 294 293 292
271 274 277 276 276 278 282 284 283 283 286 290 293 295 296 295 293 288 285 284 285 287 288 289 289 289 288 285 283 282 282 282 281 281 280 279 279 279 279 279 279 280 281 281 281 281 280 280 279 279 279 279 278 278 279 279 280 281 281 280 280 280 280 281 281 280 280 280 281 281 282 283 283 284 284 285 286 286 287 289 290 291 291 291 291 290 290
270 272 272 273 276 279 282 285 287 288 290 292 293 293 293 294 293 291 290 290 292 294 295 295 294 293 291 288 285 284 283 282 281 281 282 282 281 281 280 279 279 280 280 280 280 280 280 279 278 278 278 277 278 279 279 280 280 281 280 280 280 279 279 279 279 279 279 280 280 280 281 281 282 282 283 284 285 286 287 288 289 288 288 288 288 288 289
266 265 267 272 276 279 281 285 289 292 294 294 295 295 295 296 297 297 295 295 296 297 296 294 291 289 285 282 281 281 280 279 278 278 278 278 278 278 277 276 276 276 275 275 275 275 275 274 274 275 276 277 278 278 279 279 280 280 280 280 280 280 279 279 279 279 279 279 279 280 280 280 281 282 282 283 284 285 286 287 286 286 286 286 287 289 290
262 263 267 271 274 277 281 286 288 291 294 297 299 302 304 303 301 299 297 296 295 293 291 289 285 281 275 271 270 271 271 272 272 273 273 273 273 273 273 274 274 273 272 271 271 271 271 272 274 275 276 276 277 277 278 279 279 279 280 280 280 279 279 278 278 278 278 279 279 279 280 280 281 282 283 284 284 285 286 286 285 285 286 287 289 291 292
262 262 265 269 272 277 283 286 288 291 295 299 303 307 307 303 300 298 296 296 294 291 287 284 280 277 274 272 271 272 272 273 273 275 277 277 276 276 275 275 274 274 274 274 274 274 274 275 276 276 276 276 277 277 278 278 278 279 279 279 279 279 278 278 278 278 279 279 280 280 281 281 281 282 283 284 284 285 286 285 285 285 287 289 291 292 292
261 262 264 266 270 276 281 285 289 293 297 301 303 305 302 299 297 296 295 294 294 291 289 287 285 283 282 281 281 280 280 280 279 279 279 280 279 278 277 277 277 277 278 279 279 279 279 278 278 277 277 276 276 276 277 277 278 278 278 278 279 279 279 279 280 280 280 280 281 281 281 282 282 283 283 283 284 285 286 286 286 288 290 291 291 291 291
263 263 264 264 266 272 279 285 289 292 296 297 297 296 295 294 294 294 294 294 295 294 294 295 294 292 290 289 288 287 285 284 283 282 282 282 281 280 280 280 280 280 280 281 281 281 281 281 280 280 278 276 275 276 277 277 277 278 279 280 281 281 281 281 281 281 281 281 281 282 282 282 282 283 283 283 284 286 287 287 288 290 290 290 290 290 291
266 265 265 265 268 272 277 282 287 291 293 293 291 291 292 292 292 293 294 296 297 297 298 299 298 296 295 293 292 290 289 289 289 289 288 286 285 284 283 282 282 282 282 282 282 282 282 282 282 282 281 279 279 280 279 278 278 279 280 281 282 282 281 281 281 281 281 281 281 282 282 282 283 283 284 285 286 287 287 288 289 289 289 289 289 290 291
267 268 268 269 273 276 279 282 285 288 289 290 290 290 290 291 292 293 295 297 298 299 300 300 299 298 296 294 293 293 293 295 296 295 292 290 288 287 286 286 286 286 286 286 285 285 285 285 285 286 285 283 282 282 280 279 279 280 280 281 282 281 281 280 280 280 280 281 282 283 284 285 285 285 286 287 287 287 287 287 288 287 287 288 289 289 290
269 270 271 273 277 280 283 284 284 285 286 287 288 289 289 289 290 291 293 295 296 296 297 298 297 297 295 294 294 295 296 296 295 293 292 291 290 290 289 289 289 290 290 290 289 289 289 289 289 289 287 285 283 282 281 280 280 280 280 281 281 280 280 279 279 280 281 283 284 285 285 286 286 286 287 287 286 286 286 286 286 286 287 287 288 289 290
272 273 274 276 280 283 283 283 284 285 286 286 286 287 287 286 286 287 289 291 291 292 294 294 295 295 295 294 294 294 294 293 291 289 289 289 289 289 289 289 290 291 291 291 291 291 291 290 290 289 287 284 284 283 283 283 282 282 282 281 281 280 280 280 281 283 284 285 285 285 285 286 286 286 285 285 284 284 284 284 285 285 286 287 288 289 289
277 277 278 281 283 284 283 283 284 285 285 285 285 284 284 284 285 285 286 287 287 288 287 287 287 288 288 287 287 288 289 289 288 287 286 287 288 289 290 291 291 290 290 290 290 290 290 289 289 287 285 285 285 286 286 286 286 286 285 284 283 283 283 284 285 285 285 285 285 285 285 285 284 283 283 282 282 282 283 283 284 284 285 286 287 288 288
279 279 279 280 280 280 280 282 283 283 283 284 284 284 284 284 285 284 284 284 284 282 281 280 280 279 278 278 280 283 284 285 284 284 285 286 289 290 291 292 291 290 289 289 289 288 288 287 286 285 285 286 287 288 289 289 289 288 287 286 286 286 286 286 286 285 285 285 285 284 283 283 282 282 282 282 282 282 283 283 283 284 285 286 286 286 286
281 281 281 280 279 279 280 281 281 282 283 284 284 285 286 286 286 286 285 284 282 280 278 278 277 277 276 277 279 281 281 281 281 281 283 286 288 290 291 292 290 289 288 287 287 286 285 285 284 285 286 287 288 289 290 290 290 290 289 289 288 288 287 286 286 286 285 284 283 282 282 282 282 282 282 282 282 282 282 283 284 284 284 284 284 285 287
281 281 281 282 283 283 283 283 283 284 284 285 285 285 285 285 285 285 284 284 282 280 279 278 278 278 278 279 279 279 278 278 278 280 283 285 287 290 292 292 289 287 286 286 285 284 283 283 283 284 286 286 287 288 289 290 290 290 290 289 289 289 288 287 286 285 284 282 281 281 281 281 281 281 281 281 282 282 282 282 282 282 281 282 284 286 288
277 277 278 280 281 281 281 281 282 282 283 284 284 285 285 284 284 283 283 283 281 280 279 279 279 279 279 279 278 277 277 277 277 279 282 285 287 290 292 292 289 287 286 285 282 281 281 282 283 284 285 286 287 288 289 289 290 290 289 289 289 289 288 286 284 283 281 280 280 280 281 281 281 280 280 280 281 281 281 280 280 280 281 283 285 287 290
274 274 275 276 276 277 277 278 278 278 278 279 281 283 283 283 283 283 283 282 280 278 278 278 278 279 279 279 278 278 278 278 279 279 281 284 286 288 290 292 291 289 286 284 282 281 281 281 282 283 284 285 286 287 288 289 289 289 289 289 289 288 286 284 282 281 281 281 281 282 282 281 280 280 279 279 279 279 278 278 279 280 282 284 287 290 293
273 273 273 272 273 274 276 276 277 277 277 278 279 281 282 282 283 283 283 281 279 278 277 278 278 278 279 279 279 279 279 279 279 280 281 284 286 287 289 293 293 289 285 283 282 282 282 282 283 283 284 284 285 287 288 289 289 289 288 287 286 285 283 282 281 282 282 283 283 283 283 282 281 280 279 278 278 277 277 277 278 280 282 286 290 293 295
273 272 271 271 272 274 275 277 278 280 280 281 281 282 282 282 282 282 281 280 279 278 278 278 277 277 278 278 278 279 279 280 280 281 282 284 286 288 291 293 292 288 284 283 282 282 283 283 282 282 283 284 285 287 287 287 287 285 284 283 282 281 280 280 281 283 284 284 284 283 282 281 280 279 278 277 276 275 275 276 278 281 285 288 292 295 298
270 270 271 272 274 276 278 280 281 282 283 284 284 284 284 284 283 283 282 282 281 280 280 279 279 278 278 279 279 280 281 282 283 284 285 287 288 290 292 291 288 286 285 284 283 282 282 281 281 282 283 284 285 286 285 285 283 282 282 281 279 278 279 282 285 285 285 284 283 283 282 281 280 279 277 276 274 273 274 275 278 282 286 290 294 299 303
267 270 274 277 279 280 281 281 282 282 283 284 285 285 285 285 285 286 286 285 284 283 282 282 282 282 282 282 283 284 284 285 286 287 288 289 289 290 291 289 285 284 284 284 282 281 281 280 281 282 283 284 285 285 284 283 281 280 279 278 277 278 281 285 287 286 285 284 284 283 283 282 281 279 277 275 273 272 274 276 280 283 287 292 297 302 306
269 272 275 278 280 280 280 281 281 282 283 284 284 284 285 286 287 288 287 286 285 285 285 285 286 286 286 287 287 287 287 287 287 287 287 288 288 289 288 285 282 282 282 282 281 281 280 280 280 282 284 286 287 285 283 281 280 279 278 277 277 280 284 286 286 286 285 284 284 284 283 282 281 279 277 275 273 273 275 278 281 285 290 296 301 305 307
274 275 276 277 278 278 279 279 280 281 282 282 283 284 286 288 289 288 287 286 285 285 285 286 286 286 287 288 288 288 288 287 286 286 286 287 287 286 284 282 280 281 282 282 281 281 280 280 281 283 285 286 286 284 281 279 278 277 276 277 279 281 285 286 286 286 285 285 285 285 284 283 282 280 277 275 273 274 276 279 283 288 294 299 303 305 307
277 278 277 276 276 277 278 278 279 279 279 280 282 285 287 288 287 286 285 284 284 284 285 285 285 286 287 287 287 287 286 286 285 286 287 286 283 281 281 281 280 281 282 283 282 282 281 281 282 285 286 286 285 281 278 276 276 277 279 281 283 285 287 288 288 287 287 286 286 286 285 284 283 281 278 275 274 275 277 281 285 291 296 300 303 305 305
279 278 276 274 274 276 277 277 277 277 278 281 283 286 286 286 284 284 284 284 284 284 285 285 286 286 287 287 287 287 286 286 286 286 286 283 278 276 278 281 282 282 282 283 283 283 283 284 285 287 287 286 282 278 275 275 277 281 284 286 288 289 289 289 288 288 287 287 287 287 287 287 285 282 279 276 274 275 278 282 287 293 297 300 302 304 303
278 276 275 274 273 273 273 274 275 277 279 282 284 284 284 283 282 283 283 283 284 284 284 284 285 286 286 287 287 288 288 287 286 284 283 279 275 274 278 282 284 284 285 285 285 285 286 287 287 287 284 281 277 275 276 279 282 285 287 288 289 290 291 290 290 290 289 289 288 288 288 288 287 284 280 276 274 275 279 284 289 294 298 301 302 302 302
276 276 277 276 272 269 269 271 274 277 280 281 282 281 280 280 280 281 281 281 282 282 283 283 285 286 287 288 289 289 287 286 284 282 280 277 275 276 280 283 285 286 287 286 285 285 285 285 283 281 279 277 276 277 279 281 283 285 287 288 289 290 291 291 291 291 291 291 290 289 288 288 286 284 280 276 274 275 281 286 291 295 298 301 302 302 301
274 275 275 274 270 267 267 270 273 276 278 279 279 278 278 278 279 279 280 280 280 281 283 285 287 288 288 289 288 287 285 284 283 282 280 279 279 281 283 284 285 286 286 284 282 280 279 278 277 277 277 277 278 279 280 281 282 284 287 289 291 292 292 292 292 293 293 293 292 291 290 288 285 282 278 276 275 279 284 288 292 296 299 300 301 301 301
272 272 271 270 269 267 267 269 273 275 276 277 277 276 277 277 278 278 279 280 281 283 286 288 288 287 287 286 285 284 283 283 283 283 284 284 284 284 284 283 283 284 285 283 280 279 278 278 278 278 279 280 281 281 282 283 284 287 289 292 293 294 294 293 293 293 293 292 292 291 290 287 284 280 277 276 278 282 286 289 293 296 299 300 300 301 301
269 269 268 268 268 268 269 270 272 274 275 275 275 276 276 277 278 278 279 281 283 285 287 287 285 283 282 282 282 283 284 286 287 288 291 290 287 283 281 281 281 283 284 285 285 285 284 282 280 280 280 282 283 283 283 284 286 288 291 292 293 294 294 294 294 293 292 292 291 290 289 285 281 278 276 277 280 284 288 291 295 297 299 299 300 300 301
263 264 265 266 267 268 269 270 271 272 272 273 273 274 275 276 277 278 280 282 284 285 284 283 280 279 279 279 280 281 283 287 289 291 292 291 288 286 285 285 285 286 287 288 289 288 287 285 283 282 282 282 283 284 284 284 287 290 292 292 293 293 294 294 293 293 292 291 290 289 286 281 277 276 277 280 284 287 291 294 297 298 299 299 300 301 301
260 262 263 265 266 267 269 269 270 270 270 270 271 272 273 274 276 278 279 280 280 279 278 277 277 277 277 276 276 278 281 285 288 289 289 288 287 287 287 287 287 287 288 288 288 289 289 288 287 287 286 286 286 286 286 286 288 291 293 293 292 292 292 292 292 291 291 291 290 286 281 276 274 276 280 284 288 291 294 296 297 298 299 300 300 301 301
Height
5625 5624 5623 5622 5621 5619 5618 5617 5616 5615 5615 5614 5613 5612 5612 5611 5610 5610 5610 5610 5609 5609 5610 5610 5611 5613 5615 5617 5619 5621 5624 5628 5632 5636 5639 5643 5647 5650 5653 5657 5660 5663 5665 5668 5670 5673 5675 5677 5679 5681 5683 5684 5686 5687 5688 5689 5690 5690 5691 5693 5694 5694 5695 5696 5696 5697 5697 5697 5696 5696 5696 5695 5695 5694 5694 5693 5692 5691 5690 5690 5689 5688 5687 5685 5684 5682 5680
5627 5625 5624 5623 5622 5621 5620 5619 5618 5617 5617 5616 5615 5615 5614 5613 5613 5613 5613 5613 5613 5613 5613 5613 5614 5615 5617 5619 5621 5623 5626 5629 5632 5635 5639 5642 5645 5648 5651 5654 5657 5660 5662 5664 5667 5669 5672 5674 5676 5677 5679 5680 5682 5683 5684 5684 5685 5686 5687 5688 5689 5690 5690 5690 5691 5691 5691 5691 5691 5690 5690 5689 5689 5688 5688 5687 5686 5685 5685 5684 5683 5682 5680 5678 5677 5675 5673
5629 5627 5626 5624 5623 5622 5621 5620 5619 5619 5618 5618 5617 5617 5616 5616 5615 5615 5615 5615 5615 5615 5616 5616 5617 5618 5619 5621 5623 5626 5628 5630 5633 5635 5638 5641 5644 5646 5649 5652 5655 5657 5660 5661 5664 5666 5669 5670 5672 5674 5675 5676 5677 5678 5679 5680 5681 5681 5682 5683 5684 5685 5685 5685 5686 5686 5686 5686 5685 5685 5684 5683 5683 5682 5682 5681 5680 5679 5679 5678 5677 5675 5673 5671 5670 5668 5667
5631 5629 5627 5626 5625 5623 5622 5621 5620 5619 5619 5619 5619 5618 5618 5618 5618 5617 5617 5617 5617 5618 5618 5619 5620 5621 5622 5623 5625 5627 5629 5632 5634 5636 5638 5640 5643 5645 5648 5650 5653 5655 5657 5659 5661 5663 5665 5667 5668 5670 5671 5672 5673 5674 5675 5675 5676 5677 5678 5679 5679 5680 5680 5680 5681 5681 5681 5680 5680 5679 5678 5677 5677 5676 5676 5675 5674 5674 5673 5672 5670 5668 5666 5665 5663 5661 5660
5632 5630 5629 5627 5626 5625 5623 5622 5621 5620 5620 5620 5619 5619 5619 5619 5619 5619 5619 5619 5619 5619 5620 5621 5622 5623 5624 5625 5627 5629 5631 5633 5635 5637 5639 5640 5643 5645 5647 5649 5651 5653 5655 5657 5659 5660 5662 5664 5665 5666 5667 5668 5669 5670 5670 5671 5672 5672 5673 5674 5675 5675 5675 5676 5676 5675 5675 5674 5674 5673 5672 5671 5671 5671 5670 5670 5669 5668 5667 5665 5663 5661 5659 5658 5656 5654 5652
5634 5632 5630 5629 5627 5626 5625 5624 5623 5622 5621 5620 5620 5620 5620 5620 5620 5620 5620 5621 5621 5621 5621 5622 5623 5624 5625 5626 5628 5629 5631 5633 5635 5637 5639 5640 5642 5644 5646 5648 5650 5651 5653 5655 5656 5658 5659 5660 5661 5662 5663 5664 5665 5666 5666 5667 5668 5668 5669 5670 5670 5670 5670 5670 5670 5669 5669 5668 5667 5667 5666 5666 5666 5665 5665 5664 5663 5662 5660 5658 5656 5654 5652 5651 5649 5647 5646
5634 5633 5631 5630 5629 5628 5627 5625 5624 5623 5622 5622 5621 5621 5620 5620 5620 5621 5621 5621 5622 5623 5623 5624 5624 5625 5626 5627 5629 5630 5631 5633 5634 5636 5637 5639 5641 5643 5644 5646 5648 5649 5651 5652 5654 5655 5656 5657 5658 5659 5660 5661 5661 5662 5663 5663 5664 5664 5665 5665 5666 5666 5665 5665 5665 5664 5663 5662 5662 5661 5661 5661 5661 5660 5659 5658 5656 5655 5653 5651 5650 5648 5646 5644 5642 5641 5639
5635 5633 5632 5631 5630 5629 5628 5627 5626 5625 5624 5623 5622 5622 5621 5621 5621 5621 5621 5621 5622 5623 5623 5624 5625 5626 5627 5628 5629 5630 5631 5632 5634 5635 5637 5638 5640 5641 5643 5644 5646 5647 5648 5649 5651 5652 5653 5654 5655 5656 5657 5657 5658 5659 5659 5660 5660 5660 5660 5661 5661 5661 5660 5660 5659 5658 5657 5657 5656 5656 5656 5656 5655 5654 5653 5652 5650 5649 5647 5645 5643 5641 5639 5637 5636 5634 5632
5635 5634 5632 5631 5630 5629 5628 5628 5627 5626 5625 5625 5624 5623 5623 5622 5622 5621 5621 5621 5622 5622 5623 5624 5625 5626 5627 5627 5628 5628 5629 5631 5632 5634 5635 5637 5639 5640 5642 5643 5644 5645 5646 5647 5648 5649 5650 5652 5653 5653 5653 5654 5654 5655 5655 5655 5656 5656 5656 5656 5656 5656 5655 5655 5654 5653 5652 5652 5652 5651 5651 5650 5650 5649 5647 5646 5644 5642 5640 5638 5636 5634 5633 5631 5629 5627 5625
5634 5634 5633 5631 5630 5629 5628 5628 5627 5627 5626 5626 5625 5624 5624 5624 5623 5623 5623 5623 5623 5623 5623 5624 5624 5625 5626 5626 5626 5627 5628 5629 5630 5632 5633 5635 5636 5638 5639 5640 5641 5642 5643 5644 5645 5646 5647 5648 5649 5649 5649 5649 5650 5650 5651 5651 5651 5651 5652 5652 5651 5651 5650 5649 5649 5648 5647 5647 5646 5646 5646 5645 5644 5642 5641 5640 5638 5636 5634 5632 5630 5628 5626 5624 5621 5619 5617
5633 5632 5632 5632 5630 5629 5628 5628 5627 5627 5626 5626 5626 5625 5625 5625 5625 5625 5625 5624 5624 5624 5624 5624 5625 5625 5626 5626 5626 5627 5628 5629 5630 5631 5631 5633 5634 5634 5636 5636 5637 5638 5639 5640 5641 5642 5643 5644 5644 5644 5644 5645 5645 5646 5647 5647 5647 5648 5648 5647 5646 5646 5645 5644 5643 5643 5642 5641 5641 5640 5640 5639 5637 5636 5635 5634 5632 5630 5627 5625 5623 5621 5619 5616 5614 5611 5609
5631 5631 5631 5631 5630 5628 5628 5627 5627 5626 5626 5625 5625 5625 5625 5625 5625 5625 5625 5625 5625 5625 5625 5625 5625 5626 5626 5626 5626 5627 5628 5628 5629 5630 5630 5631 5631 5632 5633 5633 5634 5635 5636 5637 5637 5638 5639 5639 5639 5639 5640 5641 5642 5643 5642 5642 5644 5644 5643 5642 5640 5640 5640 5639 5638 5637 5637 5636 5635 5635 5634 5632 5631 5629 5628 5627 5625 5623 5620 5618 5616 5614 5611 5608 5606 5603 5600
5629 5628 5628 5629 5629 5627 5626 5626 5626 5625 5625 5625 5624 5624 5624 5624 5624 5624 5625 5625 5625 5625 5625 5625 5626 5626 5626 5626 5626 5627 5627 5628 5628 5628 5629 5629 5630 5630 5631 5632 5632 5633 5634 5634 5635 5635 5635 5635 5636 5636 5636 5637 5638 5638 5638 5639 5640 5639 5637 5635 5635 5634 5634 5633 5632 5632 5631 5630 5629 5628 5627 5625 5624 5623 5621 5620 5618 5615 5612 5611 5609 5606 5603 5601 5598 5595 5592
5627 5626 5626 5627 5627 5625 5624 5624 5624 5624 5624 5624 5623 5623 5623 5623 5623 5623 5623 5624 5624 5624 5624 5624 5625 5625 5625 5625 5626 5626 5626 5627 5627 5627 5627 5628 5629 5629 5630 5630 5631 5631 5632 5632 5632 5632 5632 5632 5633 5633 5633 5633 5634 5633 5634 5636 5635 5632 5630 5629 5629 5629 5628 5627 5626 5625 5625 5624 5623 5622 5620 5618 5616 5615 5614 5613 5610 5607 5605 5603 5601 5598 5595 5593 5590 5587 5584
5623 5623 5623 5624 5624 5623 5622 5622 5621 5621 5622 5622 5622 5622 5622 5622 5622 5622 5622 5622 5622 5622 5622 5623 5623 5623 5623 5624 5624 5625 5625 5625 5625 5625 5626 5626 5627 5627 5628 5628 5629 5629 5629 5629 5629 5629 5629 5629 5629 5629 5629 5630 5629 5629 5630 5630 5628 5626 5625 5625 5624 5623 5622 5621 5620 5619 5618 5617 5616 5614 5612 5610 5609 5608 5606 5605 5602 5599 5597 5596 5594 5590 5587 5585 5582 5580 5577
5620 5620 5621 5621 5620 5620 5620 5619 5618 5618 5619 5619 5619 5620 5620 5620 5620 5620 5620 5620 5620 5620 5620 5620 5620 5621 5621 5621 5622 5622 5623 5623 5624 5624 5624 5624 5624 5624 5624 5625 5625 5626 5626 5626 5626 5625 5626 5626 5625 5625 5625 5625 5624 5625 5625 5623 5621 5620 5620 5619 5618 5617 5616 5615 5614 5613 5611 5610 5609 5607 5605 5603 5601 5600 5598 5596 5594 5592 5590 5588 5586 5582 5579 5576 5574 5572 5570
5616 5618 5618 5617 5616 5616 5615 5614 5615 5615 5616 5616 5616 5617 5618 5618 5618 5619 5618 5618 5618 5618 5618 5618 5617 5617 5618 5618 5619 5619 5619 5620 5620 5620 5621 5621 5621 5621 5621 5621 5622 5622 5622 5622 5622 5622 5622 5621 5621 5620 5620 5620 5620 5620 5618 5616 5615 5615 5614 5613 5613 5612 5611 5609 5608 5606 5604 5603 5601 5600 5597 5595 5593 5592 5590 5589 5587 5584 5582 5580 5577 5574 5571 5568 5566 5564 5562
5613 5615 5615 5612 5611 5611 5610 5610 5611 5612 5612 5612 5613 5614 5615 5616 5616 5616 5616 5615 5615 5615 5615 5615 5615 5614 5615 5615 5616 5616 5616 5616 5616 5617 5617 5617 5618 5618 5618 5618 5618 5618 5618 5618 5618 5617 5617 5616 5616 5615 5615 5614 5615 5614 5611 5609 5609 5609 5607 5607 5607 5605 5604 5602 5600 5598 5597 5595 5594 5592 5590 5587 5586 5584 5582 5581 5578 5576 5574 5571 5568 5565 5562 5560 5558 5556 5554
5609 5612 5611 5608 5605 5605 5605 5606 5607 5607 5607 5608 5609 5610 5612 5612 5612 5613 5613 5612 5612 5612 5612 5612 5612 5611 5611 5611 5612 5612 5613 5613 5613 5613 5613 5614 5614 5614 5614 5614 5613 5614 5614 5613 5613 5612 5612 5611 5610 5609 5609 5609 5608 5606 5603 5603 5602 5601 5600 5600 5599 5597 5596 5594 5592 5591 5590 5588 5585 5583 5582 5580 5578 5576 5574 5572 5570 5567 5565 5562 5559 5557 5554 5552 5550 5548 5545
5604 5607 5608 5604 5599 5598 5600 5601 5602 5603 5603 5604 5605 5606 5607 5608 5608 5608 5608 5608 5609 5609 5609 5608 5609 5609 5608 5608 5608 5608 5609 5609 5608 5609 5609 5609 5609 5610 5609 5609 5608 5608 5608 5608 5607 5607 5606 5605 5604 5603 5603 5602 5601 5598 5597 5596 5595 5594 5593 5592 5591 5589 5587 5586 5584 5583 5581 5579 5577 5575 5573 5572 5570 5568 5566 5563 5561 5559 5556 5554 5551 5548 5546 5544 5542 5539 5537
5598 5603 5604 5598 5593 5593 5596 5597 5597 5599 5600 5600 5601 5602 5603 5604 5604 5604 5604 5604 5604 5605 5605 5605 5605 5606 5606 5605 5604 5605 5605 5604 5603 5603 5603 5603 5604 5604 5603 5603 5603 5602 5602 5601 5600 5600 5599 5598 5596 5596 5595 5594 5592 5591 5590 5588 5587 5586 5585 5584 5582 5581 5579 5577 5576 5574 5572 5570 5568 5567 5565 5563 5561 5559 5557 5554 5552 5550 5548 5545 5543 5541 5538 5536 5533 5531 5528
5594 5598 5597 5592 5588 5590 5594 5593 5591 5593 5595 5596 5597 5598 5598 5599 5599 5599 5599 5599 5600 5600 5601 5601 5601 5602 5602 5601 5600 5600 5601 5600 5598 5597 5597 5597 5597 5597 5597 5596 5596 5596 5595 5594 5593 5592 5591 5589 5588 5587 5587 5585 5583 5583 5582 5580 5578 5577 5575 5574 5573 5572 5570 5568 5567 5565 5563 5561 5560 5558 5556 5554 5552 5550 5548 5546 5543 5542 5540 5538 5535 5532 5530 5527 5525 5523 5520
5589 5590 5589 5587 5584 5585 5590 5591 5588 5588 5590 5591 5593 5594 5594 5594 5593 5593 5593 5595 5595 5595 5596 5595 5595 5596 5597 5596 5595 5595 5595 5594 5593 5592 5591 5590 5590 5590 5589 5589 5589 5588 5587 5586 5585 5584 5582 5580 5579 5579 5578 5576 5575 5575 5573 5571 5569 5568 5566 5564 5563 5562 5561 5559 5557 5555 5553 5552 5550 5549 5547 5546 5543 5541 5539 5537 5534 5533 5532 5530 5527 5524 5522 5520 5518 5515 5512
5582 5584 5584 5582 5579 5580 5585 5588 5587 5585 5585 5586 5588 5590 5591 5589 5589 5588 5588 5589 5590 5590 5590 5589 5588 5588 5589 5588 5588 5588 5588 5587 5586 5585 5584 5583 5583 5583 5582 5581 5581 5579 5578 5577 5576 5575 5573 5572 5572 5571 5570 5569 5567 5566 5565 5562 5560 5559 5557 5555 5554 5553 5551 5550 5548 5546 5544 5543 5541 5540 5538 5536 5534 5532 5530 5528 5526 5525 5524 5521 5518 5516 5514 5512 5510 5507 5504
5578 5580 5579 5576 5575 5576 5579 5582 5583 5582 5582 5582 5583 5585 5586 5584 5583 5583 5583 5583 5584 5584 5583 5583 5582 5581 5581 5581 5581 5582 5582 5581 5581 5579 5578 5578 5577 5577 5576 5575 5573 5571 5570 5569 5568 5567 5566 5566 5565 5563 5562 5561 5560 5558 5556 5554 5552 5550 5548 5546 5545 5543 5542 5540 5538 5536 5535 5534 5532 5531 5529 5527 5525 5523 5522 5520 5517 5516 5514 5512 5510 5508 5507 5504 5502 5499 5496
5573 5575 5575 5572 5571 5572 5573 5576 5578 5579 5579 5578 5578 5580 5580 5579 5578 5578 5577 5577 5577 5577 5576 5576 5576 5575 5574 5574 5575 5575 5575 5575 5575 5574 5573 5572 5571 5571 5569 5568 5566 5565 5564 5562 5561 5560 5560 5559 5557 5556 5555 5553 5552 5550 5547 5545 5542 5540 5539 5537 5536 5534 5533 5531 5529 5527 5526 5525 5523 5522 5520 5518 5516 5515 5513 5511 5509 5507 5506 5504 5502 5501 5499 5496 5494 5491 5488
5568 5571 5570 5567 5567 5569 5569 5570 5572 5574 5575 5575 5574 5573 5573 5573 5572 5571 5571 5571 5571 5570 5570 5569 5569 5569 5568 5567 5567 5567 5567 5567 5567 5566 5566 5565 5564 5563 5562 5560 5559 5558 5557 5555 5554 5553 5552 5551 5549 5548 5547 5545 5543 5541 5538 5535 5533 5531 5530 5529 5528 5526 5524 5522 5520 5519 5517 5516 5514 5512 5511 5509 5508 5506 5505 5502 5501 5500 5499 5497 5494 5492 5490 5488 5485 5483 5480
5564 5565 5563 5561 5563 5566 5568 5567 5567 5568 5569 5568 5568 5567 5566 5567 5566 5566 5566 5566 5565 5564 5564 5563 5563 5562 5561 5560 5560 5559 5559 5559 5558 5558 5558 5557 5556 5555 5554 5552 5551 5550 5548 5547 5547 5545 5544 5542 5541 5540 5539 5536 5534 5532 5529 5526 5524 5523 5522 5521 5520 5518 5516 5514 5513 5511 5509 5507 5505 5504 5502 5501 5499 5497 5496 5494 5493 5493 5491 5489 5486 5484 5482 5480 5477 5475 5473
5559 5558 5556 5556 5559 5562 5564 5565 5564 5563 5562 5561 5561 5561 5560 5559 5559 5559 5559 5559 5558 5557 5557 5556 5555 5555 5554 5553 5552 5551 5550 5550 5549 5549 5549 5548 5547 5547 5545 5544 5543 5541 5540 5539 5538 5536 5535 5534 5532 5532 5530 5528 5525 5522 5519 5517 5516 5516 5515 5514 5512 5511 5509 5507 5504 5503 5501 5499 5497 5495 5494 5492 5490 5489 5488 5487 5486 5485 5483 5481 5478 5476 5474 5472 5470 5468 5466
5552 5551 5550 5551 5554 5556 5558 5559 5558 5558 5557 5555 5554 5554 5553 5552 5552 5553 5553 5552 5552 5551 5550 5549 5548 5548 5547 5545 5544 5543 5542 5541 5541 5540 5540 5539 5538 5537 5536 5535 5534 5533 5532 5531 5529 5527 5526 5525 5524 5523 5522 5518 5515 5512 5510 5509 5509 5508 5507 5506 5504 5502 5500 5498 5496 5494 5493 5491 5489 5487 5485 5484 5482 5481 5480 5480 5478 5476 5475 5472 5470 5468 5466 5464 5462 5460 5458
5545 5545 5545 5546 5549 5550 5550 5550 5549 5550 5550 5549 5548 5548 5547 5546 5546 5546 5546 5545 5544 5544 5543 5542 5541 5540 5539 5537 5536 5535 5534 5533 5533 5532 5532 5531 5530 5529 5528 5527 5526 5525 5524 5523 5521 5519 5518 5517 5516 5514 5511 5508 5505 5503 5502 5502 5501 5500 5499 5497 5496 5494 5492 5490 5488 5487 5485 5483 5481 5479 5477 5476 5475 5474 5473 5471 5470 5468 5466 5464 5462 5460 5458 5457 5455 5453 5451
5539 5539 5540 5541 5542 5542 5542 5541 5541 5541 5541 5540 5540 5540 5539 5539 5540 5540 5540 5539 5538 5538 5537 5536 5535 5534 5533 5531 5530 5529 5527 5526 5526 5525 5524 5523 5522 5520 5520 5519 5519 5517 5516 5514 5513 5511 5510 5509 5507 5504 5500 5498 5496 5496 5495 5494 5493 5492 5491 5489 5487 5486 5484 5482 5480 5478 5476 5474 5473 5471 5469 5468 5467 5465 5464 5463 5461 5459 5458 5456 5455 5453 5451 5449 5447 5446 5444
5532 5534 5535 5535 5535 5535 5534 5534 5534 5533 5533 5532 5532 5532 5532 5532 5533 5533 5533 5533 5532 5531 5530 5530 5529 5528 5527 5526 5524 5523 5521 5521 5519 5518 5516 5515 5514 5513 5512 5512 5511 5510 5508 5506 5505 5503 5502 5500 5497 5494 5491 5490 5489 5488 5487 5486 5485 5484 5482 5481 5479 5478 5476 5474 5472 5470 5468 5467 5465 5463 5461 5460 5458 5457 5456 5454 5453 5451 5450 5449 5447 5445 5444 5442 5440 5438 5437
5524 5526 5528 5527 5527 5527 5527 5527 5527 5526 5526 5526 5525 5525 5525 5524 5525 5525 5525 5525 5525 5524 5523 5523 5523 5522 5520 5519 5517 5516 5515 5514 5513 5511 5509 5508 5506 5505 5505 5505 5504 5503 5501 5498 5496 5495 5493 5491 5488 5486 5484 5483 5482 5480 5479 5478 5477 5475 5474 5472 5471 5470 5468 5466 5464 5462 5460 5459 5457 5455 5453 5452 5450 5449 5447 5446 5444 5443 5442 5441 5440 5438 5436 5434 5432 5431 5430
5517 5518 5519 5519 5519 5519 5519 5520 5520 5519 5519 5520 5519 5518 5518 5517 5517 5517 5517 5517 5517 5516 5515 5515 5515 5514 5513 5511 5510 5509 5508 5507 5505 5504 5501 5500 5499 5498 5498 5498 5496 5494 5493 5491 5488 5486 5485 5483 5481 5479 5477 5476 5474 5472 5471 5470 5468 5467 5465 5464 5462 5461 5460 5458 5455 5454 5452 5450 5448 5447 5445 5444 5442 5441 5439 5438 5436 5436 5434 5433 5432 5430 5429 5427 5426 5424 5423
5510 5512 5513 5513 5513 5512 5512 5513 5513 5512 5512 5513 5512 5512 5511 5511 5510 5510 5510 5509 5509 5507 5507 5507 5506 5506 5505 5503 5502 5501 5500 5498 5497 5496 5494 5492 5491 5491 5490 5489 5487 5485 5485 5483 5479 5477 5477 5476 5473 5472 5470 5468 5466 5464 5462 5461 5460 5458 5457 5455 5454 5453 5451 5449 5447 5445 5444 5442 5440 5439 5437 5436 5434 5433 5431 5430 5429 5428 5426 5425 5424 5423 5422 5421 5419 5417 5416
5502 5506 5507 5506 5506 5506 5506 5507 5506 5505 5506 5506 5505 5505 5504 5503 5503 5503 5503 5502 5501 5499 5498 5498 5498 5496 5496 5495 5493 5492 5491 5489 5488 5487 5485 5483 5482 5482 5481 5480 5478 5476 5475 5473 5470 5468 5468 5468 5466 5464 5462 5460 5457 5455 5454 5453 5451 5450 5448 5447 5445 5444 5443 5441 5439 5437 5436 5434 5433 5431 5430 5428 5427 5426 5424 5423 5421 5420 5419 5418 5417 5416 5415 5414 5412 5410 5408
5494 5497 5498 5498 5498 5499 5499 5499 5498 5497 5498 5499 5498 5497 5497 5496 5496 5496 5495 5495 5494 5492 5491 5490 5489 5488 5487 5485 5484 5483 5481 5479 5478 5477 5476 5474 5473 5472 5471 5470 5467 5466 5465 5463 5461 5460 5460 5459 5458 5456 5453 5451 5449 5447 5445 5444 5443 5442 5440 5438 5437 5436 5434 5433 5432 5430 5429 5427 5426 5425 5423 5421 5420 5419 5417 5415 5414 5413 5412 5411 5410 5409 5408 5407 5405 5403 5401
5485 5487 5487 5488 5490 5491 5491 5490 5489 5488 5489 5489 5489 5489 5488 5487 5487 5487 5487 5487 5486 5483 5482 5482 5481 5479 5478 5476 5474 5473 5471 5468 5467 5467 5466 5464 5463 5462 5461 5459 5456 5454 5454 5453 5452 5452 5451 5450 5448 5447 5445 5442 5441 5439 5437 5436 5435 5434 5432 5431 5429 5428 5427 5426 5424 5423 5422 5420 5419 5418 5416 5414 5413 5411 5410 5408 5407 5406 5405 5404 5403 5402 5401 5399 5397 5396 5393
5474 5475 5475 5477 5480 5482 5481 5480 5480 5479 5478 5478 5479 5479 5477 5477 5477 5477 5478 5477 5475 5473 5472 5472 5471 5470 5468 5466 5464 5464 5461 5458 5457 5456 5455 5453 5452 5451 5450 5447 5443 5441 5443 5444 5443 5442 5442 5440 5438 5437 5436 5434 5433 5431 5429 5427 5427 5426 5425 5423 5422 5421 5420 5418 5417 5416 5414 5413 5411 5410 5409 5407 5406 5404 5403 5401 5400 5399 5398 5397 5396 5395 5394 5392 5390 5388 5385
5464 5464 5464 5467 5470 5471 5470 5469 5469 5469 5467 5467 5468 5468 5466 5466 5466 5466 5467 5466 5464 5461 5460 5460 5459 5458 5457 5455 5454 5453 5451 5448 5446 5445 5444 5443 5441 5440 5439 5437 5432 5430 5433 5434 5433 5432 5432 5430 5428 5428 5426 5425 5424 5422 5421 5420 5419 5418 5417 5416 5414 5413 5412 5411 5409 5408 5407 5406 5405 5404 5402 5401 5399 5398 5396 5395 5393 5392 5391 5390 5389 5388 5386 5384 5382 5380 5377
5453 5453 5455 5458 5460 5461 5460 5458 5458 5458 5457 5456 5456 5457 5456 5455 5456 5456 5457 5456 5453 5451 5449 5448 5447 5447 5445 5443 5442 5441 5440 5438 5435 5434 5433 5432 5430 5429 5429 5426 5421 5420 5423 5425 5424 5423 5423 5421 5419 5418 5417 5416 5415 5414 5413 5412 5411 5410 5409 5408 5407 5406 5405 5403 5402 5401 5400 5398 5397 5396 5395 5394 5392 5391 5389 5388 5387 5386 5385 5383 5382 5381 5379 5377 5374 5372 5370
5441 5441 5446 5451 5452 5451 5450 5448 5447 5448 5447 5446 5444 5445 5446 5447 5447 5447 5447 5445 5443 5442 5441 5439 5438 5437 5435 5433 5431 5431 5429 5427 5424 5424 5424 5423 5421 5419 5418 5416 5412 5412 5414 5416 5415 5415 5413 5411 5410 5409 5408 5408 5407 5406 5405 5405 5403 5402 5402 5401 5399 5398 5397 5396 5394 5393 5392 5391 5390 5389 5387 5386 5385 5384 5382 5381 5380 5379 5378 5376 5374 5373 5371 5369 5367 5365 5362
5428 5426 5433 5443 5445 5442 5440 5439 5438 5437 5437 5436 5435 5436 5438 5439 5438 5437 5436 5435 5433 5432 5432 5430 5428 5427 5425 5422 5421 5421 5419 5417 5415 5415 5415 5415 5413 5411 5408 5406 5405 5405 5406 5406 5406 5406 5404 5402 5401 5401 5400 5400 5399 5398 5398 5397 5396 5395 5394 5394 5392 5391 5390 5388 5387 5385 5384 5383 5382 5381 5380 5379 5377 5376 5375 5374 5373 5371 5370 5368 5367 5365 5363 5361 5359 5357 5355
5416 5412 5419 5432 5439 5436 5430 5428 5427 5426 5426 5428 5429 5429 5429 5429 5427 5426 5426 5425 5424 5422 5421 5420 5418 5417 5415 5412 5411 5411 5410 5408 5407 5407 5407 5407 5405 5402 5399 5398 5398 5399 5398 5398 5398 5397 5395 5394 5393 5393 5392 5392 5391 5390 5390 5389 5389 5388 5387 5386 5385 5383 5382 5380 5379 5378 5377 5376 5375 5374 5372 5371 5370 5368 5367 5366 5365 5364 5362 5361 5359 5357 5356 5353 5352 5350 5348
5406 5400 5402 5416 5429 5428 5421 5416 5416 5417 5418 5421 5423 5423 5421 5419 5417 5417 5416 5415 5414 5412 5411 5409 5408 5407 5404 5402 5402 5402 5401 5400 5399 5399 5398 5397 5396 5394 5392 5391 5391 5391 5391 5390 5389 5388 5386 5386 5385 5385 5385 5384 5384 5383 5383 5382 5381 5381 5380 5378 5377 5375 5374 5372 5371 5370 5369 5368 5367 5366 5365 5364 5362 5361 5360 5358 5357 5356 5355 5353 5351 5350 5348 5346 5344 5343 5340
5396 5390 5390 5400 5411 5414 5410 5408 5409 5410 5412 5413 5415 5414 5411 5409 5408 5409 5408 5406 5404 5403 5401 5400 5399 5398 5395 5394 5394 5394 5392 5391 5391 5390 5389 5388 5387 5387 5386 5385 5384 5383 5383 5382 5381 5380 5379 5378 5378 5377 5377 5377 5377 5376 5376 5375 5374 5373 5372 5371 5369 5368 5367 5365 5364 5363 5362 5361 5360 5358 5357 5356 5354 5353 5352 5350 5349 5348 5347 5346 5344 5342 5340 5339 5337 5335 5333
5384 5381 5383 5387 5392 5397 5400 5402 5403 5404 5404 5404 5404 5404 5401 5399 5400 5401 5399 5396 5394 5393 5393 5392 5391 5390 5388 5387 5387 5385 5384 5383 5384 5383 5381 5380 5380 5380 5379 5377 5376 5376 5375 5375 5374 5373 5372 5371 5371 5371 5370 5370 5370 5369 5369 5368 5367 5366 5365 5364 5362 5361 5360 5359 5357 5356 5355 5354 5352 5351 5349 5348 5347 5345 5344 5343 5342 5341 5340 5338 5336 5335 5333 5331 5329 5327 5325
5374 5373 5374 5375 5378 5384 5390 5393 5395 5396 5396 5394 5394 5393 5392 5390 5390 5391 5389 5387 5385 5385 5386 5385 5384 5382 5381 5380 5380 5379 5377 5377 5378 5376 5374 5373 5373 5373 5372 5371 5370 5369 5369 5368 5368 5367 5366 5365 5365 5364 5364 5364 5363 5363 5362 5361 5360 5359 5358 5357 5355 5354 5353 5351 5350 5349 5348 5346 5345 5343 5342 5340 5339 5338 5337 5336 5335 5334 5333 5331 5329 5327 5326 5324 5322 5320 5318
5364 5362 5363 5366 5370 5375 5379 5382 5385 5387 5386 5384 5384 5383 5382 5381 5381 5381 5380 5378 5378 5378 5379 5378 5377 5376 5375 5374 5374 5373 5372 5371 5371 5371 5369 5368 5367 5366 5365 5364 5364 5363 5363 5362 5362 5361 5360 5360 5359 5358 5358 5357 5356 5356 5355 5354 5353 5352 5351 5349 5348 5346 5345 5344 5343 5341 5340 5339 5337 5335 5334 5332 5331 5330 5330 5329 5328 5327 5325 5323 5322 5320 5318 5316 5315 5312 5310
5353 5353 5355 5359 5363 5366 5368 5371 5374 5376 5375 5375 5375 5374 5373 5372 5372 5373 5372 5371 5371 5372 5372 5371 5370 5369 5369 5368 5368 5368 5367 5366 5366 5366 5364 5362 5361 5360 5359 5359 5358 5357 5356 5356 5355 5354 5354 5353 5352 5351 5351 5350 5349 5348 5347 5346 5345 5344 5343 5341 5340 5338 5337 5336 5335 5333 5332 5331 5329 5328 5326 5325 5324 5323 5323 5322 5321 5319 5318 5316 5315 5313 5311 5309 5307 5305 5303
5344 5347 5350 5352 5355 5357 5360 5362 5364 5365 5365 5366 5366 5366 5365 5364 5365 5366 5366 5365 5364 5365 5365 5365 5364 5364 5363 5362 5362 5362 5361 5361 5361 5360 5358 5356 5354 5353 5352 5352 5351 5350 5349 5349 5348 5347 5346 5345 5345 5344 5343 5342 5341 5340 5339 5337 5336 5335 5334 5333 5331 5330 5329 5328 5327 5325 5324 5322 5321 5320 5319 5318 5317 5316 5316 5315 5313 5312 5311 5309 5308 5306 5304 5302 5300 5299 5296